Simultaneous Nadir Overpasses (SNOs) Predictions

Prediction of SNOs between LANDSAT-8 and NPP Satellite Orbit:

Table of predicted SNOs for the next 14.0 days since TLE Epoch: 2/12/2015
Index Date (LANDSAT-8) Time (LANDSAT-8) Lat,Lon (LANDSAT-8) SZA (LANDSAT-8 ) Date (NPP) Time (NPP) Lat,Lon (NPP) SZA (NPP ) Distance(km) Time Diff (sec)
1 02/12/2015 18:17:50 70.78, -97.17 84.40 02/12/2015 18:16:45 70.77, -97.14 84.40 1.22 65
2 02/12/2015 19:07:19 -70.72, 70.37 95.68 02/12/2015 19:07:27 -70.69, 70.30 95.70 3.55 8
3 02/12/2015 19:56:54 70.17,-122.78 83.80 02/12/2015 19:58:04 70.20,-121.61 83.78 44.27 70
4 02/15/2015 10:34:16 70.76, 18.70 83.48 02/15/2015 10:33:38 70.73, 18.69 83.46 3.30 38
5 02/15/2015 11:23:46 -70.65,-173.84 96.65 02/15/2015 11:24:20 -70.65,-173.86 96.65 0.88 34
6 02/18/2015 02:01:07 -71.26, -32.29 96.98 02/18/2015 01:59:57 -71.33, -33.87 96.83 57.26 70
7 02/18/2015 02:50:42 70.72, 134.52 82.50 02/18/2015 02:50:31 70.70, 134.50 82.49 1.83 11
8 02/18/2015 03:40:12 -70.60, -58.02 97.62 02/18/2015 03:41:13 -70.61, -58.04 97.62 1.34 61
9 02/20/2015 18:17:39 -70.80, 82.89 98.37 02/20/2015 18:16:39 -70.78, 82.83 98.37 3.11 60
10 02/20/2015 19:07:06 70.69,-109.63 81.52 02/20/2015 19:07:23 70.67,-109.68 81.50 3.08 17
11 02/20/2015 19:56:46 -70.03, 57.05 99.12 02/20/2015 19:57:55 -70.05, 58.60 99.16 59.09 69
12 02/23/2015 10:34:04 -70.74,-161.30 99.39 02/23/2015 10:33:32 -70.75,-161.36 99.38 2.36 32
13 02/23/2015 11:23:31 70.63, 6.18 80.49 02/23/2015 11:24:16 70.64, 6.12 80.50 2.51 45
14 02/26/2015 02:00:57 70.88, 147.17 79.76 02/26/2015 01:59:45 70.93, 146.80 79.84 14.90 72
15 02/26/2015 02:50:29 -70.66, -45.53 100.47 02/26/2015 02:50:24 -70.67, -45.46 100.45 3.10 5
16 02/26/2015 03:39:55 70.60, 122.03 79.47 02/26/2015 03:41:08 70.57, 122.01 79.43 3.16 73




NCC Satellite Simultaneous Nadir Overpasses (SNOs) Prediction Service
